Simultaneous Nadir Overpasses (SNOs) Predictions

Prediction of SNOs between GOES-15 and TERRA Satellite Orbit:

Table of predicted SNOs for the next 14.0 days since TLE Epoch: 4/30/2022
Index Date Time (GOES-15) GOES-15 Lat,Lon TERRA Lat,Lon Distance(km) Time Diff (sec)
1 05/01/2022 06:56:29 0.16,-128.13 0.03,-128.70 65.41 80
2 05/03/2022 06:41:35 0.16,-128.08 0.66,-125.75 265.41 80
3 05/03/2022 19:02:49 -0.17,-128.12 0.40,-130.91 317.22 80
4 05/05/2022 18:53:13 -0.17,-128.06 -0.18,-127.95 13.05 80
5 05/07/2022 18:40:58 -0.18,-128.01 -0.84,-125.00 342.78 80
6 05/08/2022 07:02:21 0.18,-127.94 -0.27,-130.19 254.61 80
7 05/10/2022 06:47:25 0.19,-127.88 0.35,-127.22 75.01 80
8 05/12/2022 06:35:08 0.19,-127.81 0.92,-124.25 404.37 80
9 05/12/2022 18:56:23 -0.19,-127.84 0.13,-129.42 178.84 80
